This is the latest recevied weather packets stored in our database for station/object LU5DTF-1. If no packets are shown the sender has not sent any weather packets the latest 1 day(s).
| Time | Temp. | Humidity | Pressure | Rain* | Wind** | Luminosity | Snow |
|---|---|---|---|---|---|---|---|
| 1777969203 | 13.89° C | 75% | 1010.7 hPa | 0 mm | 2.24 m/s, 272° | - | - |
| 1777968903 | 13.89° C | 74% | 1010.7 hPa | 0 mm | 2.24 m/s, 272° | - | - |
| 1777968603 | 14.44° C | 74% | 1010.5 hPa | 0 mm | 1.79 m/s, 275° | - | - |
| 1777968303 | 14.44° C | 73% | 1010.5 hPa | 0 mm | 1.79 m/s, 274° | - | - |
| 1777968003 | 14.44° C | 72% | 1010.4 hPa | 0 mm | 2.24 m/s, 273° | - | - |
| 1777967703 | 15° C | 71% | 1010.5 hPa | 0 mm | 1.79 m/s, 276° | - | - |
| 1777967402 | 15° C | 71% | 1010.5 hPa | 0 mm | 1.34 m/s, 282° | - | - |
| 1777967103 | 15° C | 71% | 1010.1 hPa | 0 mm | 0.89 m/s, 296° | - | - |
| 1777966803 | 15° C | 71% | 1010.1 hPa | 0 mm | 0.89 m/s, 303° | - | - |
| 1777966503 | 15° C | 71% | 1010 hPa | 0 mm | 1.34 m/s, 305° | - | - |
| 1777966203 | 15° C | 71% | 1009.9 hPa | 0 mm | 1.79 m/s, 302° | - | - |
| 1777965903 | 15° C | 71% | 1010.2 hPa | 0 mm | 1.34 m/s, 290° | - | - |
| 1777965603 | 15° C | 71% | 1010.3 hPa | 0 mm | 1.79 m/s, 278° | - | - |
| 1777965303 | 15° C | 71% | 1010.3 hPa | 0 mm | 1.34 m/s, 278° | - | - |
| 1777965003 | 15° C | 71% | 1010.3 hPa | 0 mm | 1.34 m/s, 279° | - | - |
| 1777964703 | 15° C | 72% | 1010.1 hPa | 0 mm | 1.79 m/s, 275° | - | - |
| 1777964403 | 15° C | 71% | 1010.1 hPa | 0 mm | 2.24 m/s, 274° | - | - |
| 1777964102 | 15° C | 71% | 1010.3 hPa | 0 mm | 1.79 m/s, 284° | - | - |
| 1777963802 | 15° C | 71% | 1010.2 hPa | 0 mm | 1.79 m/s, 291° | - | - |
| 1777963503 | 15° C | 72% | 1010.2 hPa | 0 mm | 2.24 m/s, 286° | - | - |
| 1777963202 | 15° C | 72% | 1010.3 hPa | 0 mm | 2.24 m/s, 284° | - | - |
| 1777962902 | 15° C | 72% | 1010.3 hPa | 0 mm | 2.68 m/s, 282° | - | - |
| 1777962603 | 14.44° C | 73% | 1010.4 hPa | 0 mm | 2.68 m/s, 279° | - | - |
| 1777962302 | 14.44° C | 72% | 1010.3 hPa | 0 mm | 2.68 m/s, 277° | - | - |
| 1777962002 | 14.44° C | 72% | 1010.4 hPa | 0 mm | 2.68 m/s, 280° | - | - |
* Rain latest hour (hover to see other rain measurements)
** Current wind speed in m/s (hover to see current wind gust speed)